LEMUR-2-YUASA

Last updated on Wed Jan 18 2023 00:02:07 GMT+0000 (Coordinated Universal Time)

1 43560U 18046G 23017.41862558 .04292523 11965-4 15642-2 0 9992 2 43560 51.6251 167.2725 0011641 290.5754 69.4016 16.23776049252982

Satellite not in orbit